Location: Newark
(51.5870°N, 0.4428°W)
Time: 17:05:39
(UTC+00:00)

Starlink (trailer) - Visible Passes

Search period start: 19 October 2019 00:00
Search period end: 29 October 2019 00:00
Orbit: 549 x 551 km, 53.0° (Epoch: 19 October)

Date Brightness Start Highest point End Pass type
(mag) Time Alt. Az. Time Alt. Az. Time Alt. Az.
19 Oct 3.7 18:47:53 10° W 18:52:02 72° N 18:53:24 40° ENE visible
19 Oct 6.1 20:27:35 10° WNW 20:29:03 21° WNW 20:29:03 21° WNW visible
20 Oct 3.7 18:42:29 10° W 18:46:38 71° N 18:48:05 38° ENE visible
20 Oct 6.0 20:22:10 10° WNW 20:23:44 22° WNW 20:23:44 22° WNW visible
21 Oct 3.6 18:37:04 10° W 18:41:14 72° N 18:42:47 36° E visible
21 Oct 5.9 20:16:44 10° WNW 20:18:26 23° W 20:18:26 23° W visible
22 Oct 3.6 18:31:40 10° W 18:35:49 75° N 18:37:30 34° E visible
22 Oct 5.8 20:11:19 10° WNW 20:13:09 24° W 20:13:09 24° W visible
23 Oct 3.6 18:26:14 10° WNW 18:30:24 79° N 18:32:14 32° E visible
23 Oct 5.7 20:05:54 10° WNW 20:07:53 25° W 20:07:53 25° W visible
24 Oct 3.5 18:20:48 10° WNW 18:24:58 85° NNE 18:26:59 29° E visible
24 Oct 5.6 20:00:31 10° W 20:02:39 25° W 20:02:39 25° W visible
25 Oct 3.6 18:15:22 10° WNW 18:19:31 87° SSW 18:21:48 26° ESE visible
25 Oct 5.6 19:55:09 10° W 19:57:28 25° WSW 19:57:28 25° WSW visible
26 Oct 3.7 18:09:55 10° WNW 18:14:04 77° SSW 18:16:41 22° ESE visible
26 Oct 5.7 19:49:50 10° W 19:52:20 23° WSW 19:52:20 23° WSW visible
27 Oct 3.9 18:04:28 10° WNW 18:08:36 67° SSW 18:11:37 17° SE visible
27 Oct 5.8 19:44:36 10° W 19:47:18 20° SW 19:47:18 20° SW visible
28 Oct 4.1 17:59:01 10° WNW 18:03:05 56° SSW 18:06:41 13° SE visible
28 Oct 6.0 19:39:30 10° W 19:42:01 16° SW 19:42:22 16° SW visible
